AirNav   Everest Fuels
 
 1599 users online  

M36 Frank Federer Memorial Airport
Brinkley, Arkansas, USA

GOING TO BRINKLEY?


FAA INFORMATION EFFECTIVE 15 JULY 2021

Location

FAA Identifier: M36
Lat/Long: 34-52-49.0000N 091-10-35.2000W
34-52.816667N 091-10.586667W
34.8802778,-91.1764444
(estimated)
Elevation: 195.3 ft. / 59.5 m (surveyed)
Variation: 02E (1995)
Time zone: UTC -5 (UTC -6 during Standard Time)
Zip code: 72021

Airport Operations

Airport use: Open to the public
Activation date: 04/1941
Control tower: no
ARTCC: MEMPHIS CENTER
FSS: JONESBORO FLIGHT SERVICE STATION
NOTAMs facility: JBR (NOTAM-D service available)
Attendance: MAR-SEP MON-SAT 0800-1700, OCT-FEB MON-FRI 0800-1700
Wind indicator: lighted
Segmented circle: yes
Lights: ACTVT MIRL RWY 02/20 - CTAF.
Beacon: white-green (lighted land airport)
Operates sunset to sunrise.

Airport Communications

CTAF/UNICOM: 122.8
  • APCH/DEP SVC PRVDD BY MEMPHIS ARTCC ON FREQS 135.3/335.8(BRINKLEY RCAG).

Nearby radio navigation aids

VOR radial/distance  VOR name  Freq  Var
UJMr305/30.8MARVELL VOR/DME109.6001E

Airport Services

Fuel available: 100LL
100LL:FUEL AVBL 24 HRS SELF SVC WITH CREDIT CARD.
Parking: hangars and tiedowns
Airframe service: MAJOR
Powerplant service: MAJOR

Runway Information

Runway 2/20

Dimensions: 4002 x 75 ft. / 1220 x 23 m
Surface: asphalt, in excellent condition
Weight bearing capacity: 
Single wheel: 12.0
Runway edge lights: medium intensity
RUNWAY 2  RUNWAY 20
Latitude: 34-52.519867N34-53.113748N
Longitude: 091-10.760575W091-10.411818W
Elevation: 195.1 ft.190.6 ft.
Traffic pattern: rightleft
Runway heading: 024 magnetic, 026 true204 magnetic, 206 true
Displaced threshold: 248 ft.150 ft.
Markings: nonprecision, in good conditionnonprecision, in good condition
Visual slope indicator: 2-light PAPI on left (3.00 degrees glide path)
PAPI OTS INDEFLY.
2-light PAPI on left (3.00 degrees glide path)
Touchdown point: yes, no lightsyes, no lights
Obstructions: 33 ft. tree, 450 ft. from runway, 150 ft. left of centerline, 7:1 slope to clear
ROAD & BRIDGE SIGNS AT 180 FT FM THR XNG CNTRLN.
30 ft. tree, 485 ft. from runway, 130 ft. left of centerline, 9:1 slope to clear
APCH SLP 21:1 TO DSPLCD THR.

Airport Ownership and Management from official FAA records

Ownership: Publicly-owned
Owner: CITY OF BRINKLEY
233 WEST CEDAR
BRINKLEY, AR 72021
Phone 870-734-1382
Manager: TERRY BURNETT
233 WEST CEDAR
BRINKLEY, AR 72021
Phone 870-734-5059

Airport Operational Statistics

Aircraft based on the field: 12
Single engine airplanes: 12
    
Aircraft operations: avg 61/day *
90% local general aviation
9% transient general aviation
<1% military
* for 12-month period ending 09 August 2019

Additional Remarks

WATER-TANK NW.
NUMEROUS AGRICULTURAL ACFT OPNS FM FEB-NOV 500 FT AGL AND BELOW.
FOR CD CTC MEMPHIS ARTCC AT 901-368-8453/8449.
MIGRATORY BIRDS ON & INVOF ARPT

Instrument Procedures

NOTE: All procedures below are presented as PDF files. If you need a reader for these files, you should download the free Adobe Reader.

NOT FOR NAVIGATION. Please procure official charts for flight.
FAA instrument procedures published for use from 15 July 2021 at 0901Z to 12 August 2021 at 0900z.

 
IAPs - Instrument Approach Procedures
RNAV (GPS) RWY 20   download (203KB)
NOTE: Special Take-Off Minimums/Departure Procedures apply   download (131KB)

Other nearby airports with instrument procedures:

6M7 - Marianna/Lee County Airport-Steve Edwards Field (19 nm E)
KDRP - Delta Regional Airport (22 nm NE)
M60 - Woodruff County Airport (24 nm N)
KSGT - Stuttgart Municipal Airport / Carl Humphrey Field (26 nm SW)
4M3 - Carlisle Municipal Airport (27 nm W)
 
Loc | Ops | Rwys | IFR | FBO | Links
Com | Nav | Svcs | Stats | Notes
Area around M36 (Frank Federer Memorial Airport)
 
Road maps at: MapQuest Bing Google
 
Aerial photo
WARNING: Photo may not be current or correct
Aerial photo of M36 (Frank Federer Memorial Airport)
Photo courtesy of the Arkansas Department of Aeronautics
Taken in the Spring of 2007

Do you have a better or more recent aerial photo of Frank Federer Memorial Airport that you would like to share? If so, please send us your photo.

 
Sectional chart

 
Airport distance calculator
Flying to Frank Federer Memorial Airport? Find the distance to fly.

From to M36

Sunrise and sunset
Times for 26-Jul-2021
 Local
(UTC-5)
 Zulu
(UTC)
Morning civil twilight05:4310:43
Sunrise06:1111:11
Sunset20:1101:11
Evening civil twilight20:4001:40

Current date and time
Zulu (UTC)  26-Jul-2021 17:53:26
Local (UTC-5)  26-Jul-2021 12:53:26
 
METAR
KSGT 
26nm SW 
261656Z AUTO 03005KT 10SM FEW025 32/26 A2999 RMK AO2 SLP153 T03170256
KSRC 
35nm NW 
261656Z AUTO 04004KT 10SM CLR 32/24 A2999 RMK AO2 SLP153 T03220244
KUTA 
43nm E 
261735Z AUTO 20004KT CLR 33/24 A2998 RMK AO2 TSNO
KM19 
45nm N 
261656Z AUTO 03005KT 10SM CLR 31/25 A2999 RMK AO2 SLP151 T03110250
KCKM 
48nm SE 
261735Z AUTO 00000KT 10SM SCT038 33/25 A2998 RMK A01
KLRF 
48nm W 
261656Z AUTO 00000KT 10SM CLR 32/25 A2997 RMK AO2 SLP148 T03240252 $
KAWM 
49nm E 
261653Z AUTO 00000KT 10SM FEW032 FEW045 33/24 A2997 RMK AO2 SLP142 T03280239 $
TAF
KLRF 
48nm W 
261503Z 2615/2721 02005KT 9999 FEW040 SCT250 QNH2988INS BECMG 2620/2621 04009KT 9999 VCTS SCT050CB BKN250 QNH2987INS TEMPO 2621/2624 VRB10G15KT 8000 -TSRA BKN050CB BECMG 2623/2624 VRB05KT 9999 NSW SCT065 SCT250 QNH2988INS BECMG 2704/2705 VRB04KT 9999 BKN065 BKN250 QNH2994INS BECMG 2712/2713 05009KT 9999 SCT065 SCT250 QNH2995INS BECMG 2719/2720 07009KT 9999 BKN080 BKN250 QNH2993INS TX35/2621Z TN26/2711Z
NOTAMs
Click for the latest NOTAMs
NOTAMs are issued by the DoD/FAA and will open in a separate window not controlled by AirNav.

 

 
 

FBO, Fuel Providers, and Aircraft Ground Support

  
 Business Name 
 
 Contact 
 
 Services / Description 
 
Fuel Prices
 
Comments
  
Frank Federer Memorial Airport 870-589-1479
no information available

If you are affiliated with Frank Federer Memorial Airport and would like to show here your services, contact info, web link, logo, and more, click here
100LL
SS $3.97 
 Updated 11-Apr-2019
 
   write
SS=Self service
Update Fuel Prices
 

Would you like to see your business listed on this page?

 If your business provides an interesting product or service to pilots, flight crews, aircraft, or users of the Frank Federer Memorial Airport, you should consider listing it here.  To start the listing process, click on the button below
 
Add a business
 

Other Pages about Frank Federer Memorial Airport

Update a link
 
Copyright © AirNav, LLC. All rights reserved. Privacy Policy  Contact